Overview Statistics Trail Chart Weather Telemetry Raw packets
 

This is the latest recevied weather packets stored in our database for station/object W8KHW. If no packets are shown the sender has not sent any weather packets the latest 10 day(s).

<< 1 2 3 4 5 6 7 >>
Time Temp. Humidity Pressure Rain* Wind** Luminosity Snow
1777871446 10.56° C 72% 1013.1 hPa 0 mm - - -
1777870946 10.56° C 73% 1013.2 hPa 0 mm - - -
1777870445 10.56° C 73% 1013.3 hPa 0 mm - - -
1777869945 10.56° C 76% 1013.4 hPa 0 mm - - -
1777869445 10.56° C 74% 1013.3 hPa 0 mm - - -
1777868945 10.56° C 75% 1013.2 hPa 0 mm - - -
1777868445 10.56° C 72% 1013.5 hPa 0 mm - - -
1777867945 10.56° C 71% 1013.4 hPa 0 mm - - -
1777867444 10.56° C 73% 1013.7 hPa 0 mm - - -
1777866944 10.56° C 73% 1013.5 hPa 0 mm - - -
1777866444 10.56° C 74% 1013.8 hPa 0 mm - - -
1777865944 10° C 75% 1013.6 hPa 0 mm - - -
1777865444 10° C 75% 1013.7 hPa 0 mm - - -
1777864943 10° C 74% 1013.9 hPa 0 mm - - -
1777864443 10.56° C 73% 1013.8 hPa 0 mm - - -
1777863943 10° C 75% 1013.8 hPa 0 mm - - -
1777863443 10° C 76% 1013.8 hPa 0 mm - - -
1777862943 10° C 75% 1014 hPa 0 mm - - -
1777862442 10.56° C 75% 1013.8 hPa 0 mm - - -
1777861942 10.56° C 72% 1014.2 hPa 0 mm - - -
1777861442 10.56° C 73% 1014.2 hPa 0 mm - - -
1777860942 10° C 74% 1014.3 hPa 0 mm - - -
1777860442 10° C 75% 1014.1 hPa 0 mm - - -
1777859942 10° C 75% 1014.1 hPa 0 mm - - -
1777859441 10° C 74% 1014.5 hPa 0 mm - - -

* Rain latest hour (hover to see other rain measurements)
** Current wind speed in m/s (hover to see current wind gust speed)